COSMOS 2449 (GLONASS)

Satellite information

Favourite Embed

Satellite Type and Status

PAYLOADIN ORBIT

Key statistics

Satellite COSMOS 2449 (GLONASS) at a glance.

Uptime

6040

Days in orbit

Revolutions

≈ 2.1

Per day

Orbit

MEO

Medium Earth Orbit

Inclination

64.6

Latest

Satellite identification and parameters

Extended collection of information and parameters for COSMOS 2449 (GLONASS).

Object identification

Identified? True

Debris? False

Object name: COSMOS 2449 (GLONASS)

International designator: 2008-067B

Object number (NORAD): 33467

Object ID (CCSDS): 33467

Country: COMMONWEALTH OF INDEPENDENT STATES (CIS)

Current information (Y/N): Y

RCS size: LARGE

Orbital parameters

Period: 675.748 minutes

Inclination: 64.6004 deg

SMA: 25508.41 km

Apoapsis: 19211.958 km

Periapsis: 19048.592 km

RAAN: 81.1005 deg

Eccentricy: 0.0032022

Argument of periapsis: 236.9633 deg

Mean anomaly: 122.7816 deg

Mean motion: 2.13097169 rev/day

Mean motion (dot): -0.00000028 rev/day2

B* drag term: 0.0 1/REarth

Two-line elements (TLE)

Creation date: July 9, 2025, 2:22 a.m.

Reference frame: TEME

Reference center: EARTH

Epoch: July 8, 2025, 9:05 a.m. UTC

TLE line 0: 0 COSMOS 2449 (GLONASS)

TLE line 1: 1 33467U 08067B 25189.37872615 -.00000028 00000-0 00000-0 0 9999

TLE line 2: 2 33467 64.6004 81.1005 0032022 236.9633 122.7816 2.13097169128636

Live tracking on map

Real-time ground track for satellite COSMOS 2449 (GLONASS).

In-orbit conjunctions

There are no conjunctions computed for COSMOS 2449 (GLONASS), at the moment. Check back to stay up to date, as we update our databases every day.

Go to all conjunctions

Associated space launch

GLONASS navigation satellites

COSMOS 2449 (GLONASS) was lifted into orbit during the mission ‘Proton-M | Uragan-M 18 to 20’, on board a Proton-M space rocket.

The launch took place on Dec. 25, 2008, 10:43 a.m. from 81/24 (81P).

For more information about the launch, click the button.

Launch to space Proton-M | Uragan-M 18 to 20
Proton-M | Uragan-M 18 to 20

Agency: N/A

Status: Launch Successful

Launch date: Dec. 25, 2008, 10:43 a.m. UTC

Rocket: Proton-M

Launch pad: 81/24 (81P)

Location: Baikonur Cosmodrome, Republic of Kazakhstan

...

Latest news about this satellite

There are no fresh news available about this satellite. Check back as we update our databases every day.


Newsletter sign-up

Weekly statistics, charts and insights to help you stay on top of the space industry.